Theta_e
312 311 310 309 309 310 311 311 310 309 311 315 317 308 311 311 310 315 319 319 317 312 314 317 315 314 314 312 314 311 313 312 311 316 317 310 311 313 315 315 316 318 313 314 312 315 318 317 319 321 317 322 333 329
310 310 310 309 309 311 312 312 311 310 310 314 317 308 310 311 310 314 318 319 320 314 314 319 319 314 315 315 311 309 313 312 311 313 313 312 312 311 309 310 313 318 315 318 317 315 314 315 316 315 314 322 325 325
311 311 310 309 309 309 310 311 312 310 309 313 316 308 309 310 309 311 316 318 319 313 312 312 315 316 317 316 317 314 311 309 308 307 310 311 315 310 312 312 316 316 312 318 318 318 318 315 315 315 317 319 320 320
311 311 310 310 310 309 310 311 311 311 310 312 315 309 308 309 309 310 317 317 319 315 314 315 317 315 316 318 318 316 312 310 307 306 310 311 316 310 310 311 312 313 313 314 315 317 316 315 314 313 317 318 319 319
311 310 310 310 310 309 309 310 311 310 310 313 316 307 308 308 308 315 316 316 318 317 319 316 314 314 316 317 316 316 314 309 309 313 313 314 310 311 309 311 312 313 313 314 317 313 313 313 312 312 315 317 318 318
311 310 310 310 310 310 310 310 311 310 313 314 311 307 307 308 309 319 317 318 316 317 314 318 314 314 316 317 316 314 312 308 308 312 310 308 307 309 311 306 310 312 312 309 313 313 311 312 311 312 311 313 315 315
312 312 311 310 310 310 310 310 310 312 314 314 307 307 307 308 310 317 319 318 317 316 316 317 316 314 316 315 313 311 312 309 311 308 309 309 307 306 307 308 310 312 314 314 313 313 314 312 313 311 311 311 313 313
313 312 310 310 310 310 310 311 313 314 312 307 308 307 308 311 316 318 317 318 317 318 315 317 317 316 315 315 316 310 312 310 308 308 306 307 302 307 307 307 308 310 309 310 311 312 311 310 311 311 312 310 311 311
312 312 311 311 311 312 313 314 314 308 308 309 307 309 313 316 318 320 317 315 316 318 319 317 319 320 314 314 313 312 309 314 307 310 309 306 306 302 306 305 308 307 311 312 311 311 311 312 311 311 312 308 308 308
311 312 313 313 313 314 314 313 309 311 307 307 310 318 319 319 316 315 319 315 314 313 314 320 314 321 315 315 316 315 309 311 313 310 306 308 307 304 303 302 304 307 308 309 311 312 311 310 310 312 311 310 311 310
308 312 313 313 313 311 308 306 307 308 310 315 318 320 319 316 318 313 318 319 316 321 315 316 315 318 313 318 317 311 311 309 309 310 312 310 311 310 309 305 303 304 306 308 309 309 310 308 308 310 313 313 312 311
306 308 309 309 308 306 306 306 310 315 313 310 311 313 316 315 313 320 318 318 320 321 316 316 316 313 313 309 316 312 314 311 315 309 313 309 310 309 310 308 308 308 309 309 309 309 310 310 309 309 311 312 313 313
307 307 308 308 308 309 306 305 305 306 313 315 315 318 315 315 315 321 323 321 321 317 315 314 316 313 310 309 311 313 317 315 311 315 314 312 310 309 310 310 310 308 308 309 310 310 311 311 311 310 310 312 313 312
308 309 309 308 308 308 307 305 305 306 312 316 318 311 318 320 319 318 319 319 317 317 314 313 314 314 311 313 311 317 314 314 318 315 315 311 310 310 309 309 309 309 308 309 310 311 311 312 312 312 311 310 310 310
308 311 311 309 310 309 309 308 306 306 315 318 318 318 319 318 317 319 317 318 318 314 313 315 314 312 313 315 314 314 318 320 317 316 312 309 308 309 309 309 308 308 308 308 310 310 311 312 312 312 312 312 312 311
310 313 310 309 309 309 308 309 307 308 314 316 318 320 315 319 319 319 317 317 314 310 310 312 315 316 318 315 318 319 320 318 314 311 308 308 309 309 309 309 309 309 309 310 310 312 312 312 311 311 311 311 311 311
314 313 311 307 308 308 311 311 311 312 315 318 317 313 315 317 319 316 317 318 310 312 316 313 318 318 312 317 318 315 316 313 310 308 307 308 309 309 308 308 309 310 310 310 311 311 311 311 310 309 309 309 307 306
313 314 310 309 308 309 313 311 313 317 319 316 316 311 311 312 315 315 314 314 318 316 314 317 311 314 314 315 312 309 308 307 309 309 309 308 309 308 309 308 310 310 310 310 310 310 310 310 308 308 308 307 305 305
308 308 308 308 309 309 310 314 311 314 315 314 312 310 310 311 310 312 314 315 316 317 318 316 319 314 313 309 310 309 307 311 313 312 311 309 310 309 310 310 310 309 309 309 308 309 310 310 309 307 306 305 304 305
309 309 309 311 310 309 313 313 314 313 316 314 311 312 311 312 314 315 315 315 317 318 320 321 317 314 311 310 307 309 308 310 312 314 312 309 309 309 309 309 309 309 308 308 307 307 306 305 306 306 305 304 304 305
310 311 312 311 311 310 309 311 314 314 316 317 314 314 317 315 320 319 317 314 318 319 321 317 316 314 310 310 310 310 312 313 316 317 313 312 309 309 309 308 308 307 306 306 305 305 305 305 306 305 304 304 305 305
310 312 312 311 312 312 309 311 311 312 313 313 313 312 314 315 315 318 315 319 320 319 317 317 316 318 314 315 317 313 314 317 317 313 312 313 309 307 306 308 306 305 306 307 307 306 306 306 305 305 304 305 305 305
310 312 312 312 316 314 312 315 318 317 318 316 314 318 315 314 314 314 320 318 318 314 316 316 317 319 318 319 318 317 315 313 311 312 312 313 312 311 310 309 309 307 305 306 306 307 307 306 306 305 305 305 305 304
310 311 313 313 312 312 314 317 316 317 317 318 317 321 321 320 317 320 323 320 318 316 317 318 317 317 316 316 315 315 316 312 311 310 312 311 308 309 311 311 310 309 310 309 306 306 307 306 306 305 305 304 304 304
308 308 308 306 312 320 319 320 319 319 322 320 323 322 321 317 320 321 321 319 319 319 319 319 318 317 318 315 313 312 312 310 307 307 307 310 309 307 308 309 310 310 310 309 306 306 306 306 305 305 305 304 304 304
311 309 312 316 317 319 320 322 322 322 320 322 322 320 317 318 321 323 320 320 319 320 320 321 321 321 319 317 316 312 312 311 311 312 312 310 310 307 306 305 303 305 307 308 307 306 305 304 304 305 305 305 305 305
309 311 312 311 314 315 315 316 321 322 324 324 323 321 321 324 325 322 317 317 317 318 319 320 320 320 321 317 317 317 314 314 315 316 316 315 313 313 311 306 304 308 307 306 306 306 306 304 304 304 304 305 305 305
311 312 315 314 315 315 318 317 318 318 322 320 322 325 325 325 323 319 318 321 321 320 319 320 320 316 313 315 318 316 316 315 315 315 314 314 313 310 307 306 307 307 306 305 306 306 306 305 305 305 305 305 305 303
312 312 312 314 314 315 317 318 317 316 317 320 321 320 320 318 319 319 319 319 319 314 310 309 309 310 312 313 315 315 316 315 308 303 303 303 302 305 306 306 306 306 305 304 305 305 306 305 306 306 306 305 305 304
310 310 313 315 317 318 317 315 316 314 315 316 316 319 318 316 319 320 318 313 314 312 309 309 310 309 307 307 306 308 309 309 309 306 303 302 304 306 305 305 306 305 305 305 305 305 305 305 305 305 304 305 304 304
310 310 312 313 314 313 313 312 314 317 317 318 317 319 319 317 318 319 317 314 311 310 310 308 306 308 308 307 307 306 305 307 306 306 307 306 306 306 306 305 305 305 305 304 304 304 304 304 304 304 304 303 303 303
311 313 314 316 315 313 312 314 317 321 319 318 319 318 318 318 319 316 318 318 318 315 309 310 308 307 307 307 308 308 309 309 309 307 307 307 307 306 305 305 305 304 304 303 303 302 303 303 303 302 302 302 302 302
316 314 313 316 318 319 320 320 323 323 321 321 320 320 320 317 317 314 316 317 317 317 314 311 311 310 309 309 309 309 309 308 308 307 307 307 308 308 307 304 304 303 303 303 302 302 301 301 302 302 302 302 303 303
Wind_Speed
25 24 22 21 18 13 13 14 15 14 11 9 8 6 7 8 10 6 2 8 2 2 3 2 2 4 2 2 3 2 4 4 4 4 3 3 2 2 2 2 0 2 2 1 2 2 2 7 6 3 3 5 2 5
23 24 24 21 17 13 14 13 14 14 10 8 7 5 5 6 7 5 1 7 3 1 2 3 3 2 2 7 5 2 4 3 4 4 1 3 1 2 2 2 3 1 4 3 6 5 4 4 4 4 3 3 1 5
26 26 23 19 16 15 15 14 13 13 11 7 7 5 4 5 6 4 3 9 1 3 4 4 3 7 4 3 3 4 2 3 2 2 4 2 3 3 2 4 1 3 2 2 2 3 4 4 4 4 1 3 7 9
26 24 20 17 16 16 15 14 11 12 10 6 6 4 4 3 4 4 2 7 2 3 4 4 5 4 5 6 8 6 9 6 6 3 3 2 3 2 3 3 3 4 2 3 3 5 4 4 5 4 2 9 12 8
23 18 16 15 16 15 14 12 9 10 7 5 6 4 3 4 4 1 4 8 5 2 3 2 3 6 5 11 16 13 13 4 3 3 3 1 1 2 1 2 2 3 4 4 5 3 2 4 5 4 4 5 11 15
19 18 18 14 13 12 10 7 7 7 5 5 5 4 1 2 3 1 3 2 7 2 3 2 3 2 6 15 17 14 8 4 3 3 2 1 1 2 2 2 3 2 2 4 2 3 3 6 5 1 2 3 7 8
17 18 15 11 8 5 3 4 6 6 5 6 5 2 1 1 1 1 2 1 4 2 3 2 2 3 2 4 4 3 7 3 3 2 2 2 2 3 2 2 3 4 3 1 3 2 1 3 3 7 3 2 5 10
15 15 10 7 4 1 2 5 4 5 7 6 2 0 1 2 3 2 3 1 2 4 3 3 2 2 2 2 2 3 2 3 5 2 1 2 2 2 3 7 4 3 3 4 5 2 3 3 5 7 1 8 6 6
13 10 7 5 4 3 3 4 5 6 5 3 2 1 3 2 2 2 2 1 1 1 3 2 5 4 2 1 1 3 2 3 2 2 1 2 1 3 7 6 6 6 5 1 3 2 1 2 4 5 2 5 7 5
12 7 5 3 3 4 5 6 5 3 2 1 3 1 1 2 5 4 0 3 4 3 2 2 1 2 3 0 2 2 3 1 1 2 1 2 3 5 7 7 5 6 7 4 4 2 2 3 3 3 1 3 9 7
11 6 3 2 5 7 8 5 2 3 4 1 2 2 2 2 1 3 1 1 1 1 1 3 4 4 1 3 3 0 2 1 2 3 2 2 3 4 3 8 6 5 6 6 4 2 2 4 4 3 1 3 11 18
7 6 4 3 4 4 5 4 2 2 2 2 3 4 2 2 3 2 2 1 3 4 2 4 4 3 1 2 3 0 3 1 3 3 2 3 4 5 5 6 7 7 7 5 6 5 1 0 5 5 7 7 10 14
5 3 4 2 2 1 3 2 2 3 3 3 2 3 3 0 1 4 5 3 2 4 4 3 2 3 2 3 4 2 3 4 3 1 3 5 4 4 6 6 6 8 9 6 6 5 3 2 4 7 8 8 8 8
6 4 3 3 3 5 4 3 2 1 1 2 3 2 4 3 4 5 4 4 4 2 4 3 3 2 1 3 3 3 1 3 0 1 5 4 7 7 7 5 6 8 8 8 8 8 7 6 7 9 10 7 8 11
8 4 1 5 5 7 4 5 3 3 1 2 3 3 5 4 3 2 3 2 1 3 4 3 3 3 1 3 1 3 2 3 5 5 4 4 5 6 7 7 7 7 6 7 11 11 12 10 9 6 4 5 6 5
6 2 3 4 5 6 2 4 4 2 1 2 2 2 2 1 2 1 2 3 2 4 3 3 3 2 3 4 3 6 5 6 4 4 4 2 4 6 6 6 8 12 14 13 14 13 11 8 9 5 4 2 2 4
1 2 2 7 8 5 2 2 2 3 2 2 3 2 2 2 4 3 4 4 6 3 3 4 5 7 2 3 3 5 5 5 5 4 3 5 7 7 6 8 10 13 13 13 8 8 7 8 8 7 5 5 4 3
2 2 5 9 9 4 1 3 2 2 4 4 2 3 3 3 3 2 3 3 4 4 4 4 5 4 5 5 4 4 5 3 3 3 3 4 4 8 11 8 9 10 11 11 11 8 10 11 11 10 8 6 5 6
5 8 10 9 5 2 1 3 3 3 5 3 3 2 3 3 4 1 2 4 3 3 4 2 3 4 5 4 5 4 3 4 4 3 1 6 14 14 13 12 12 11 12 13 13 13 14 16 14 10 8 6 4 2
10 9 6 4 5 2 2 3 3 2 3 3 2 2 3 3 1 1 3 3 4 3 2 3 5 4 4 4 5 4 3 4 4 2 1 3 11 13 15 17 16 15 12 11 10 9 10 9 10 11 10 7 6 2
4 2 3 2 3 4 2 2 3 3 3 2 2 2 3 1 1 3 3 3 2 4 4 5 4 5 4 3 5 8 6 8 4 3 5 4 12 17 17 17 15 14 11 11 11 12 13 16 15 14 11 10 7 5
2 3 1 3 1 2 2 6 3 3 1 3 2 1 2 2 3 2 3 2 4 4 4 4 3 2 3 4 5 13 12 18 13 8 7 14 5 4 6 16 15 11 13 14 16 17 18 15 15 13 12 10 7 5
2 3 2 2 1 1 6 3 2 3 2 2 2 1 2 2 2 1 2 3 3 2 2 2 2 3 3 5 5 5 6 8 6 10 14 13 14 16 15 21 23 17 10 14 14 15 15 18 16 13 10 8 7 5
5 2 3 3 4 4 1 2 2 2 2 1 1 3 2 2 2 1 3 3 2 1 1 2 2 2 1 1 2 3 10 12 9 9 12 13 6 11 21 23 23 23 20 13 12 13 17 20 17 15 13 12 11 8
3 4 3 4 2 3 3 2 3 1 3 3 2 3 1 2 1 1 2 3 1 2 2 1 2 2 2 2 0 0 3 10 7 3 5 9 8 7 10 15 16 19 17 15 16 20 21 19 19 19 18 15 12 12
2 4 7 5 3 3 3 2 4 4 2 2 3 1 1 2 1 4 3 2 2 2 2 2 1 1 3 4 2 2 9 13 17 10 6 8 7 5 4 5 4 11 18 21 23 26 25 22 22 21 20 18 14 11
2 4 4 3 2 1 3 3 2 1 3 4 2 3 2 1 3 3 2 2 3 3 3 6 7 5 4 3 6 7 17 19 14 12 10 13 14 13 15 15 12 21 21 24 23 27 29 27 25 23 21 16 14 13
5 2 5 3 3 3 2 3 2 3 3 2 3 3 3 4 3 2 3 3 8 12 10 7 7 8 9 8 12 17 19 16 15 10 7 10 15 13 10 15 17 15 16 24 26 26 27 28 27 25 23 19 16 14
3 3 2 4 3 3 5 5 4 3 4 4 4 3 3 1 1 1 2 7 10 6 7 8 9 7 8 10 16 20 22 20 13 5 4 2 1 4 7 6 4 6 10 16 22 23 22 22 22 22 21 22 18 13
4 4 3 2 3 5 4 5 2 2 1 2 1 1 2 2 2 2 4 6 0 5 6 7 5 4 4 7 8 8 13 15 16 17 6 5 8 9 11 9 9 8 9 11 13 12 11 13 13 10 12 15 14 12
2 3 3 3 3 3 4 3 2 2 2 2 2 1 0 2 2 1 2 4 4 6 8 5 3 6 7 9 10 7 6 16 17 18 10 4 13 12 14 14 13 14 14 13 11 11 12 12 13 14 13 13 12 12
4 6 4 4 3 3 3 3 2 2 2 2 3 2 2 3 2 2 1 2 6 1 2 2 3 2 4 3 5 8 8 8 18 23 15 11 12 12 14 16 16 17 16 14 13 13 13 13 12 12 14 15 13 13
3 4 4 2 2 2 1 3 2 2 2 2 1 0 1 1 1 3 3 4 4 4 4 2 3 1 0 1 2 3 3 3 2 8 12 8 6 5 9 20 19 18 17 15 13 10 11 13 13 12 13 14 15 14
Wind_Direction
315 319 321 314 307 303 309 314 319 315 301 309 310 320 338 350 356 359 15 6 350 122 276 212 149 132 110 109 141 249 34 356 41 65 118 207 126 252 41 284 18 145 119 138 68 79 268 341 343 16 260 323 179 133
319 318 315 309 301 283 290 303 305 306 283 295 283 292 321 336 4 359 329 342 332 117 203 316 345 353 231 179 134 28 167 171 179 90 130 112 80 69 145 263 336 350 176 189 173 219 246 280 245 281 232 248 314 121
317 315 311 304 300 295 293 295 295 293 283 276 283 270 304 333 359 10 344 357 346 60 6 41 21 34 66 69 136 118 271 149 142 158 150 146 113 129 145 250 299 340 123 108 60 288 320 334 334 341 359 117 95 107
317 313 309 303 300 296 290 287 283 282 278 280 270 251 283 320 337 358 79 13 57 107 112 276 360 38 21 89 84 90 127 99 100 76 90 109 126 160 203 205 164 200 83 140 300 296 326 349 17 354 48 104 97 96
321 318 314 306 299 293 285 279 265 269 249 250 232 238 278 309 323 181 101 41 42 118 162 226 335 34 75 99 86 87 92 88 60 53 52 105 128 112 340 55 270 181 176 154 212 226 173 259 334 18 307 139 136 130
323 323 320 312 304 294 280 256 241 235 214 231 207 213 214 329 334 150 20 36 26 52 95 101 316 26 78 90 72 54 59 72 82 106 118 80 67 118 117 209 258 212 182 180 194 207 225 280 281 6 3 237 164 150
325 323 324 324 320 302 245 214 198 194 207 190 190 200 282 101 135 290 187 78 4 31 82 56 4 323 40 45 44 33 39 69 84 101 68 118 21 43 91 221 239 208 213 208 242 292 226 16 307 315 291 136 184 156
334 335 334 334 335 318 158 165 168 181 166 173 202 162 7 68 112 127 62 43 2 86 66 112 266 27 21 48 46 1 55 36 20 120 62 88 20 24 255 243 248 233 283 272 256 240 235 272 327 331 252 141 140 168
344 352 13 38 78 82 105 134 147 154 156 171 163 116 110 104 104 106 62 353 86 104 133 99 141 219 29 73 70 35 50 56 306 75 46 83 4 236 228 212 208 212 187 166 139 151 26 351 337 346 311 144 125 137
348 344 355 354 54 91 103 125 135 150 146 172 127 135 76 86 118 139 11 24 14 342 45 150 128 174 98 74 48 80 25 95 45 278 104 79 261 251 241 218 216 205 205 153 143 217 226 273 284 324 344 139 126 125
351 356 11 55 99 101 102 92 97 120 116 123 95 55 74 144 119 41 44 115 278 284 186 202 177 141 307 119 150 90 152 62 52 272 104 306 281 250 217 199 209 228 232 212 203 188 173 209 204 206 150 78 121 133
337 10 22 48 112 109 79 68 63 96 96 136 138 121 132 83 41 112 224 286 201 219 205 155 196 160 153 116 103 353 111 73 234 154 76 280 252 236 193 187 186 181 176 176 192 184 202 285 213 194 199 193 177 156
357 351 352 327 181 90 10 20 26 21 103 103 68 71 70 116 84 201 190 240 239 181 183 170 127 134 81 64 70 105 122 216 112 98 235 231 248 238 199 166 162 179 172 170 184 194 199 166 164 200 223 229 221 219
357 4 355 341 310 305 296 280 308 326 166 107 140 351 172 203 236 201 190 197 232 152 149 123 92 125 133 83 143 126 150 113 124 247 239 246 225 221 184 175 143 182 186 194 204 210 220 228 228 219 219 215 211 219
338 333 342 31 8 325 279 239 236 255 161 150 123 216 214 227 246 246 214 291 226 130 131 93 72 97 55 114 177 110 117 236 207 227 227 236 220 182 178 177 177 174 181 200 210 217 221 223 229 246 228 222 238 257
340 115 33 30 16 360 1 200 210 226 156 165 223 262 230 137 265 219 203 247 177 136 112 69 117 112 197 149 140 206 169 216 241 218 233 205 185 186 181 178 190 190 192 209 206 214 223 208 184 188 183 191 214 246
353 144 9 356 349 335 237 206 220 231 221 225 250 210 206 232 230 222 180 214 153 119 163 133 162 203 129 152 214 183 203 220 223 235 212 196 180 187 181 180 199 205 208 216 206 183 175 178 170 174 177 207 239 271
240 215 317 336 341 324 237 208 226 231 243 237 213 241 205 213 204 212 229 182 152 169 137 202 136 175 200 188 234 235 234 247 223 220 206 175 177 167 175 178 188 190 189 191 189 176 169 169 188 204 213 218 240 293
275 281 285 288 283 305 243 227 195 242 236 230 248 232 228 249 236 222 164 173 160 137 118 167 205 201 225 210 216 233 225 207 197 185 208 172 174 168 175 178 168 162 163 168 178 188 194 202 210 210 200 196 241 277
294 295 280 244 193 207 259 264 203 230 259 233 228 247 218 220 191 153 134 145 147 140 141 187 216 216 200 220 200 220 209 147 119 97 80 195 190 169 180 178 183 186 185 187 186 190 193 200 209 195 186 193 192 212
295 235 170 169 200 213 227 258 255 218 269 244 240 217 259 290 231 174 183 164 125 195 219 214 223 234 209 237 220 173 144 146 150 174 209 172 193 184 189 198 194 191 190 195 192 205 209 212 194 184 184 188 204 229
208 205 257 214 213 200 251 227 222 276 244 249 299 198 262 266 248 236 135 160 217 224 198 196 222 210 205 205 211 198 190 180 182 189 175 140 132 161 186 196 185 201 203 213 210 208 214 204 187 186 188 191 213 252
230 213 230 203 242 228 264 170 224 221 223 257 12 272 248 244 227 102 244 225 253 238 224 226 258 228 225 223 177 191 206 185 176 180 183 195 184 186 182 198 207 202 200 219 219 220 212 193 188 189 190 201 223 248
185 215 218 214 176 252 241 241 221 262 275 274 230 261 230 244 344 101 254 258 254 279 249 234 186 187 168 102 209 211 213 208 201 183 189 172 158 194 204 210 214 219 225 234 208 200 184 190 191 194 202 212 216 228
83 273 124 281 259 249 222 248 229 192 243 207 217 272 293 14 22 298 255 272 265 267 269 225 199 170 217 236 318 309 185 186 159 127 167 172 151 149 198 220 228 231 228 216 204 192 190 196 199 204 210 221 226 229
220 232 175 207 233 198 219 241 219 217 209 219 227 200 54 70 331 249 245 241 253 254 264 276 271 243 244 197 121 148 166 164 150 131 145 181 191 215 231 181 177 223 212 210 197 193 198 203 205 209 216 226 233 230
239 267 225 233 250 269 278 248 248 215 240 198 192 162 135 218 244 243 259 228 229 250 303 277 255 258 307 112 180 195 183 169 163 161 180 212 243 280 257 218 204 220 209 203 208 207 201 205 209 214 218 223 226 228
226 247 198 210 206 218 261 292 235 226 231 160 125 184 209 212 247 255 229 299 288 312 315 298 276 279 279 250 188 170 169 164 148 155 186 230 263 266 237 231 234 243 231 217 213 215 216 216 216 218 220 219 226 227
237 237 184 239 225 228 213 208 232 253 149 154 169 218 239 228 291 303 287 304 317 347 22 15 30 71 84 131 163 171 168 162 130 129 146 176 235 159 165 176 188 216 219 216 218 222 225 228 230 231 230 221 220 230
245 182 204 237 208 224 240 180 226 218 142 178 153 36 30 351 341 358 340 337 238 129 101 89 96 118 120 127 122 158 182 186 185 169 169 193 200 178 175 174 165 163 180 187 187 189 199 215 218 214 207 204 207 222
189 159 193 229 261 245 231 207 191 86 90 77 35 124 129 299 301 353 73 41 62 123 123 109 133 172 172 159 171 180 226 218 209 200 213 238 188 188 196 187 176 170 168 169 173 178 182 181 181 177 180 187 202 215
181 198 188 210 252 267 132 169 128 84 50 59 11 5 12 33 5 305 71 345 355 42 168 219 225 233 205 217 219 233 255 267 225 218 214 191 197 215 210 188 182 177 174 177 182 186 186 187 191 203 213 224 229 231
188 173 201 255 258 153 122 127 113 104 62 78 23 110 76 109 320 282 315 314 304 268 212 267 326 192 188 302 311 317 337 356 321 203 195 189 177 227 229 196 188 191 191 191 193 194 195 202 209 215 226 232 243 252